| time (UTC) | temp F | wind direction | speed knots | gust knots | rain 1hr in | rain 24hr in | rain mn in | humidity % | barometer mb |
| 20260503212005 | 65 | 300 | 6.1 | 14.8 | 0.00 | 0.00 | 0.00 | 26 | 1001.9 |
| 20260503211709 | 64 | 284 | 5.2 | 10.4 | 0.00 | 0.00 | 0.00 | 24 | 1002.0 |
| 20260503211004 | 65 | 304 | 6.1 | 13.9 | 0.00 | 0.00 | 0.00 | 24 | 1001.9 |
| 20260503210005 | 65 | 272 | 4.3 | 13.9 | 0.00 | 0.00 | 0.00 | 24 | 1001.9 |
| 20260503204710 | 64 | 271 | 8.7 | 14.8 | 0.00 | 0.00 | 0.00 | 28 | 1002.1 |
| 20260503204004 | 64 | 254 | 10.4 | 15.6 | 0.00 | 0.00 | 0.00 | 27 | 1002.1 |
| 20260503203209 | 65 | 289 | 5.2 | 12.2 | 0.00 | 0.00 | 0.00 | 28 | 1002.1 |
| 20260503203004 | 65 | 326 | 6.1 | 13.0 | 0.00 | 0.00 | 0.00 | 28 | 1001.9 |
| 20260503202004 | 64 | 252 | 6.1 | 14.8 | 0.00 | 0.00 | 0.00 | 33 | 1002.3 |
| 20260503201709 | 64 | 295 | 8.7 | 12.2 | 0.00 | 0.00 | 0.00 | 32 | 1002.3 |
| 20260503201004 | 64 | 275 | 12.2 | 21.7 | 0.00 | 0.00 | 0.00 | 31 | 1002.3 |
| 20260503200004 | 65 | 263 | 7.0 | 13.9 | 0.00 | 0.00 | 0.00 | 32 | 1002.2 |
| 20260503195005 | 64 | 337 | 6.1 | 18.2 | 0.00 | 0.00 | 0.00 | 34 | 1002.1 |
| 20260503194710 | 64 | 247 | 4.3 | 5.2 | 0.00 | 0.00 | 0.00 | 32 | 1002.2 |
| 20260503194004 | 65 | 263 | 7.8 | 13.9 | 0.00 | 0.00 | 0.00 | 31 | 1002.4 |
| 20260503193004 | 64 | 279 | 6.1 | 20.0 | 0.00 | 0.00 | 0.00 | 32 | 1002.4 |
| 20260503191709 | 63 | 261 | 7.8 | 13.0 | 0.00 | 0.00 | 0.00 | 33 | 1002.6 |
| 20260503191004 | 64 | 293 | 8.7 | 19.1 | 0.00 | 0.00 | 0.00 | 35 | 1002.6 |
| 20260503185004 | 63 | 256 | 5.2 | 14.8 | 0.00 | 0.00 | 0.00 | 37 | 1002.7 |
| 20260503184710 | 63 | 268 | 6.1 | 6.1 | 0.00 | 0.00 | 0.00 | 38 | 1002.7 |
| 20260503183004 | 63 | 254 | 4.3 | 12.2 | 0.00 | 0.00 | 0.00 | 36 | 1002.8 |
| 20260503182005 | 63 | 260 | 6.1 | 14.8 | 0.00 | 0.00 | 0.00 | 39 | 1002.9 |
| 20260503181710 | 64 | 262 | 7.0 | 8.7 | 0.00 | 0.00 | 0.00 | 37 | 1003.0 |
| 20260503181005 | 63 | 273 | 1.7 | 13.0 | 0.00 | 0.00 | 0.00 | 39 | 1002.8 |
| 20260503180005 | 63 | 260 | 8.7 | 14.8 | 0.00 | 0.00 | 0.00 | 39 | 1003.2 |
| 20260503175004 | 62 | 281 | 6.1 | 15.6 | 0.00 | 0.00 | 0.00 | 40 | 1003.3 |
| 20260503174710 | 63 | 257 | 8.7 | 13.9 | 0.00 | 0.00 | 0.00 | 38 | 1003.2 |
| 20260503174004 | 63 | 318 | 3.5 | 13.0 | 0.00 | 0.00 | 0.00 | 43 | 1003.2 |
| 20260503173004 | 62 | 346 | 5.2 | 14.8 | 0.00 | 0.00 | 0.00 | 42 | 1003.3 |
| 20260503171710 | 62 | 248 | 8.7 | 13.0 | 0.00 | 0.00 | 0.00 | 44 | 1003.3 |
| 20260503151004 | 57 | 281 | 6.1 | 10.4 | 0.00 | 0.00 | 0.00 | 53 | 1004.0 |
| 20260503150210 | 57 | 268 | 7.8 | 10.4 | 0.00 | 0.00 | 0.00 | 56 | 1004.0 |
| 20260503140210 | 56 | 253 | 5.2 | 7.8 | 0.00 | 0.00 | 0.00 | 59 | 1004.1 |
| 20260503131004 | 50 | 228 | 5.2 | 7.8 | 0.00 | 0.00 | 0.00 | 75 | 1004.3 |
| 20260503130209 | 49 | 224 | 4.3 | 5.2 | 0.00 | 0.00 | 0.00 | 76 | 1004.3 |
| 20260503110209 | 46 | 206 | 1.7 | 4.3 | 0.00 | 0.00 | 0.00 | 78 | 1004.3 |
| 20260503100210 | 48 | 208 | 1.7 | 2.6 | 0.00 | 0.00 | 0.00 | 76 | 1005.0 |
| 20260503090209 | 50 | 202 | 0.0 | 2.6 | 0.00 | 0.00 | 0.00 | 72 | 1005.4 |
| 20260503081004 | 51 | 200 | 1.7 | 4.3 | 0.00 | 0.00 | 0.00 | 72 | 1006.1 |
| 20260503080209 | 51 | 214 | 0.9 | 2.6 | 0.00 | 0.00 | 0.00 | 71 | 1006.4 |
| 20260503071710 | 52 | 223 | 2.6 | 4.3 | 0.00 | 0.00 | 0.00 | 68 | 1007.2 |
| 20260503071004 | 53 | 244 | 3.5 | 7.8 | 0.00 | 0.00 | 0.00 | 70 | 1007.4 |
| 20260503070209 | 53 | 245 | 5.2 | 7.8 | 0.00 | 0.00 | 0.00 | 68 | 1007.7 |
| 20260503060210 | 54 | 258 | 4.3 | 7.8 | 0.00 | 0.00 | 0.00 | 61 | 1008.1 |
| 20260503054709 | 54 | 256 | 5.2 | 7.0 | 0.00 | 0.00 | 0.00 | 61 | 1008.2 |
| 20260503054004 | 54 | 244 | 4.3 | 6.1 | 0.00 | 0.00 | 0.00 | 64 | 1008.2 |
| 20260503053210 | 54 | 246 | 2.6 | 4.3 | 0.00 | 0.00 | 0.00 | 64 | 1008.1 |
| 20260503052004 | 55 | 254 | 5.2 | 7.0 | 0.00 | 0.00 | 0.00 | 62 | 1008.4 |
| 20260503051709 | 54 | 248 | 5.2 | 6.1 | 0.00 | 0.00 | 0.00 | 62 | 1008.3 |
| 20260503051004 | 55 | 243 | 4.3 | 7.0 | 0.00 | 0.00 | 0.00 | 62 | 1008.3 |
| 20260503050210 | 55 | 252 | 4.3 | 6.1 | 0.00 | 0.00 | 0.00 | 61 | 1008.3 |
| 20260503045004 | 55 | 241 | 7.8 | 10.4 | 0.00 | 0.00 | 0.00 | 60 | 1008.3 |
| 20260503044709 | 55 | 248 | 6.1 | 7.0 | 0.00 | 0.00 | 0.00 | 61 | 1008.3 |
| 20260503044004 | 55 | 243 | 9.6 | 17.4 | 0.00 | 0.00 | 0.00 | 60 | 1008.5 |
| 20260503043209 | 55 | 250 | 10.4 | 13.0 | 0.00 | 0.00 | 0.00 | 60 | 1008.6 |
| 20260503043003 | 55 | 241 | 9.6 | 13.9 | 0.00 | 0.00 | 0.00 | 58 | 1008.5 |
| 20260503042004 | 54 | 225 | 7.8 | 11.3 | 0.00 | 0.00 | 0.00 | 59 | 1008.8 |
| 20260503041708 | 54 | 234 | 5.2 | 6.1 | 0.00 | 0.00 | 0.00 | 57 | 1008.8 |
| 20260503040209 | 53 | 235 | 6.1 | 7.8 | 0.00 | 0.00 | 0.00 | 56 | 1008.9 |
| 20260503040004 | 53 | 231 | 5.2 | 10.4 | 0.00 | 0.00 | 0.00 | 57 | 1009.0 |
| 20260503035003 | 53 | 220 | 3.5 | 6.1 | 0.00 | 0.00 | 0.00 | 55 | 1009.0 |
| 20260503034709 | 53 | 232 | 5.2 | 6.1 | 0.00 | 0.00 | 0.00 | 55 | 1009.0 |
| 20260503034004 | 53 | 230 | 4.3 | 7.0 | 0.00 | 0.00 | 0.00 | 54 | 1009.2 |
| 20260503033209 | 53 | 243 | 5.2 | 7.0 | 0.00 | 0.00 | 0.00 | 56 | 1009.3 |
| 20260503033004 | 53 | 241 | 4.3 | 6.1 | 0.00 | 0.00 | 0.00 | 58 | 1009.4 |
| 20260503032004 | 53 | 245 | 4.3 | 6.1 | 0.00 | 0.00 | 0.00 | 54 | 1009.6 |
| 20260503031709 | 52 | 247 | 4.3 | 4.3 | 0.00 | 0.00 | 0.00 | 56 | 1009.6 |
| 20260503031003 | 52 | 219 | 3.5 | 7.0 | 0.00 | 0.00 | 0.00 | 54 | 1009.6 |
| 20260503030209 | 52 | 216 | 2.6 | 5.2 | 0.00 | 0.00 | 0.00 | 52 | 1009.7 |
| 20260503030004 | 52 | 218 | 2.6 | 5.2 | 0.00 | 0.00 | 0.00 | 54 | 1009.7 |
| 20260503025004 | 52 | 222 | 2.6 | 7.0 | 0.00 | 0.00 | 0.00 | 52 | 1009.8 |
| 20260503024709 | 52 | 213 | 2.6 | 2.6 | 0.00 | 0.00 | 0.00 | 51 | 1009.7 |
| 20260503024004 | 52 | 195 | 2.6 | 5.2 | 0.00 | 0.00 | 0.00 | 49 | 1009.7 |
| 20260503023208 | 53 | 192 | 2.6 | 2.6 | 0.00 | 0.00 | 0.00 | 49 | 1009.8 |
| 20260503023004 | 53 | 194 | 1.7 | 5.2 | 0.00 | 0.00 | 0.00 | 50 | 1009.9 |
| 20260503022003 | 53 | 198 | 1.7 | 4.3 | 0.00 | 0.00 | 0.00 | 48 | 1010.0 |
| 20260503021708 | 53 | 195 | 0.9 | 2.6 | 0.00 | 0.00 | 0.00 | 47 | 1010.0 |
| 20260503021004 | 54 | 195 | 1.7 | 2.6 | 0.00 | 0.00 | 0.00 | 47 | 1010.0 |
| 20260503020208 | 54 | 202 | 0.9 | 2.6 | 0.00 | 0.00 | 0.00 | 47 | 1010.1 |
| 20260503020004 | 54 | 202 | 0.9 | 4.3 | 0.00 | 0.00 | 0.00 | 47 | 1010.1 |
| 20260503015003 | 54 | 202 | 1.7 | 4.3 | 0.00 | 0.00 | 0.00 | 46 | 1010.1 |
| 20260503014709 | 55 | 208 | 0.9 | 2.6 | 0.00 | 0.00 | 0.00 | 46 | 1010.1 |
| 20260503014004 | 55 | 206 | 1.7 | 6.1 | 0.00 | 0.00 | 0.00 | 45 | 1010.1 |
| 20260503013208 | 55 | 211 | 1.7 | 2.6 | 0.00 | 0.00 | 0.00 | 45 | 1010.1 |
| 20260503013004 | 55 | 204 | 2.6 | 5.2 | 0.00 | 0.00 | 0.00 | 45 | 1010.1 |
| 20260503012003 | 55 | 227 | 2.6 | 5.2 | 0.00 | 0.00 | 0.00 | 46 | 1010.1 |
| 20260503011708 | 56 | 205 | 2.6 | 5.2 | 0.00 | 0.00 | 0.00 | 45 | 1010.2 |
| 20260503011004 | 56 | 217 | 2.6 | 5.2 | 0.00 | 0.00 | 0.00 | 46 | 1010.2 |
| 20260503010211 | 56 | 237 | 2.6 | 5.2 | 0.00 | 0.00 | 0.00 | 47 | 1010.2 |
| 20260503010005 | 56 | 230 | 4.3 | 7.0 | 0.00 | 0.00 | 0.00 | 45 | 1010.2 |
| 20260503005006 | 56 | 229 | 4.3 | 7.8 | 0.00 | 0.00 | 0.00 | 47 | 1010.3 |
| 20260503004711 | 56 | 222 | 5.2 | 6.1 | 0.00 | 0.00 | 0.00 | 44 | 1010.3 |
| 20260503004006 | 57 | 231 | 5.2 | 10.4 | 0.00 | 0.00 | 0.00 | 46 | 1010.4 |
| 20260503003211 | 57 | 232 | 6.1 | 8.7 | 0.00 | 0.00 | 0.00 | 44 | 1010.4 |
| 20260503003005 | 57 | 226 | 6.1 | 8.7 | 0.00 | 0.00 | 0.00 | 46 | 1010.5 |
| 20260503001710 | 57 | 229 | 5.2 | 5.2 | 0.00 | 0.00 | 0.00 | 49 | 1010.6 |
| 20260503001005 | 57 | 226 | 4.3 | 7.8 | 0.00 | 0.00 | 0.00 | 46 | 1010.7 |
| 20260503000211 | 57 | 247 | 6.1 | 7.8 | 0.00 | 0.00 | 0.00 | 45 | 1010.8 |
| 20260503000005 | 57 | 243 | 5.2 | 10.4 | 0.00 | 0.00 | 0.00 | 45 | 1010.9 |
| 20260502235005 | 57 | 241 | 10.4 | 13.9 | 0.00 | 0.00 | 0.00 | 44 | 1010.9 |
| 20260502234710 | 57 | 254 | 7.8 | 10.4 | 0.00 | 0.00 | 0.00 | 43 | 1011.0 |
| 20260502233210 | 57 | 255 | 10.4 | 12.2 | 0.00 | 0.00 | 0.00 | 42 | 1011.1 |
| 20260502233005 | 57 | 244 | 13.0 | 19.1 | 0.00 | 0.00 | 0.00 | 44 | 1011.2 |
| 20260502232006 | 58 | 237 | 10.4 | 13.0 | 0.00 | 0.00 | 0.00 | 45 | 1011.2 |
| 20260502231711 | 58 | 235 | 6.1 | 10.4 | 0.00 | 0.00 | 0.00 | 44 | 1011.2 |
| 20260502231005 | 58 | 231 | 11.3 | 17.4 | 0.00 | 0.00 | 0.00 | 42 | 1011.2 |
| 20260502230211 | 58 | 247 | 13.9 | 17.4 | 0.00 | 0.00 | 0.00 | 42 | 1011.3 |
| 20260502230005 | 58 | 232 | 11.3 | 17.4 | 0.00 | 0.00 | 0.00 | 39 | 1011.2 |
| 20260502225005 | 58 | 242 | 8.7 | 15.6 | 0.00 | 0.00 | 0.00 | 39 | 1011.4 |
| 20260502224711 | 58 | 235 | 10.4 | 10.4 | 0.00 | 0.00 | 0.00 | 41 | 1011.4 |
| 20260502224006 | 58 | 258 | 11.3 | 13.9 | 0.00 | 0.00 | 0.00 | 40 | 1011.3 |
| 20260502223210 | 58 | 243 | 7.8 | 12.2 | 0.00 | 0.00 | 0.00 | 38 | 1011.5 |
| 20260502223006 | 58 | 243 | 10.4 | 15.6 | 0.00 | 0.00 | 0.00 | 40 | 1011.5 |
| 20260502221710 | 58 | 246 | 8.7 | 13.9 | 0.00 | 0.00 | 0.00 | 36 | 1011.7 |
| 20260502221005 | 58 | 222 | 7.8 | 13.9 | 0.00 | 0.00 | 0.00 | 34 | 1011.9 |
| 20260502220211 | 57 | 261 | 7.0 | 8.7 | 0.00 | 0.00 | 0.00 | 35 | 1011.9 |
| 20260502220006 | 57 | 240 | 6.1 | 11.3 | 0.00 | 0.00 | 0.00 | 36 | 1011.9 |
| 20260502215005 | 57 | 264 | 7.0 | 11.3 | 0.00 | 0.00 | 0.00 | 37 | 1012.0 |
| 20260502214711 | 57 | 265 | 1.7 | 5.2 | 0.00 | 0.00 | 0.00 | 37 | 1012.1 |
| 20260502214005 | 57 | 232 | 8.7 | 15.6 | 0.00 | 0.00 | 0.00 | 36 | 1012.2 |